Location: Bremen
(53.0793°N, 8.8017°E)
Time: 11:06:59
(UTC+02:00)

Altair - Pass Details

Date: 19 April 2024
Orbit: 1501 x 1682 km, 47.2° (Epoch: 17 May)

Event Time Altitude Azimuth Distance (km) Brightness Sun altitude
Rises 04:34:20 0° 283° (WNW) 4,767 9.7 -13.9°
Enters shadow 04:38:38 - 264° (W) 3,929 9.2 -13.4°
Reaches altitude 10° 04:40:07 10° 256° (WSW) 3,734 - -13.3°
Maximum altitude 04:43:15 12° 236° (SW) 3,546 - -12.9°
Drops below altitude 10° 04:46:21 10° 216° (SW) 3,689 - -12.5°
Exits shadow 04:51:34 - 190° (S) 4,541 9.5 -11.9°
Sets 04:52:01 0° 188° (S) 4,638 9.6 -11.9°
